World > North America > United States > Iowa > Norwoodville

Hourly Norwoodville, IA Regional Weather

Feedback E-mail the Weather

Quick WX

Norwoodville, IA Weather Maps

°F °C°F °C
Norwoodville Weather Map
UTC Time: 8/13/2022, 06:39
Your Time:

Norwoodville, IA Regional Weather

Expires:202208130700;;009686
ASUS43 KEAX 130615
RWREAX

WEATHER ROUNDUP FOR EASTERN KANSAS AND NORTHWEST MISSOURI
NATIONAL WEATHER SERVICE KANSAS CITY/PLEASANT HILL MO
100 AM CDT SAT AUG 13 2022


IAZ060-094-KSZ022-034>040-054-083-096-NEZ052-066-093-130700- 
...KANSAS...SOUTHEAST NEBRASKA AND IOWA...
  
CITY           SKY/WX    TMP DP  RH WIND       PRES   REMARKS
TOPEKA         CLEAR     76  68  76 S5        30.05S                  
6HR MIN TEMP:  76; 6HR MAX TEMP:  90;                                

MANHATTAN      CLEAR     74  59  59 SE5       30.04S                  
EMPORIA        CLEAR     70  58  65 S6        30.07S                  
OTTAWA         FAIR      70  68  94 CALM      30.06S                  
CHANUTE        CLEAR     70  60  70 S5        30.08S                  
SALINA         CLEAR     80  62  54 S10       30.04S                  
WICHITA        CLEAR     76  61  59 S9        30.08R                  
OMAHA          MOCLDY    77  64  64 S9        29.99S                  
LINCOLN        PTCLDY    78  61  55 S13       29.99S                  
FALLS CITY     CLEAR     73  67  81 S10       30.03S                  
LAMONI         CLEAR     71  68  90 S7        30.06S                  
DES MOINES     PTCLDY    73  68  84 S10       30.02S                  

$$

  

SKY/WX - Weather  TMP - Temperature  DP - Dew Point  RH - Humidity
WIND - Wind Direction/Speed PRES - Barometric Pressure VSB - Visibility
WCI - Wind Chill Index E13G22 Wind - East Wind 13 mph/Gusts of 22 mph

Trending Headlines

Norwoodville Radar Loop



Norwoodville Quick Facts


National Two Day Weather Forecast


E-mail the Norwoodville Weather Forecast

Voice your opinion or tell us about page issues...